Regional Weather Roundup
Issued by NWS

Home | Current Version | Previous Version | Graphics & Text | Print | Product List | Glossary On
Versions: 1 2 3 4 5 6 7 8 9 10 11 12 13 14 15 16 17 18 19 20 21 22 23 24 25 26 27 28 29 30 31 32 33 34 35 36 37 38 39 40 41 42 43 44 45 46 47 48 49 50
000
ASUS45 KCYS 241110
RWRWY

WYOMING REGIONAL WEATHER ROUNDUP
NATIONAL WEATHER SERVICE CHEYENNE WY
500 AM MDT SUN MAY 24 2015

NOTE:  "FAIR" INDICATES FEW OR NO CLOUDS BELOW 12,000 FEET
WITH NO SIGNIFICANT WEATHER AND/OR OBSTRUCTIONS TO VISIBILITY.

WYZ001-241200-
YELLOWSTONE NATIONAL PARK

CITY           SKY/WX    TMP DP  RH WIND       PRES   REMARKS
LK YELLOWSTONE   N/A     33  31  92 CALM      30.07F
W YELLOWSTONE  NOT AVBL

$$
WYZ002>013-054>058-071-098>099-241200-
NORTHERN WYOMING

CITY           SKY/WX    TMP DP  RH WIND       PRES   REMARKS
JACKSON        FAIR      37  37 100 N9        29.99F WCI  31
CODY           CLOUDY    46  41  81 N13       30.01F
GREYBULL       FAIR      50  45  83 NW13      29.95S
WORLAND        CLOUDY    49  45  86 N8        29.96R
SHERIDAN       CLOUDY    49  47  93 N7        30.01S
BUFFALO        LGT RAIN  46  45  96 N18G24    30.00S FOG
GILLETTE       LGT RAIN  50  48  93 NE10      29.95F
HULETT         DRIZZLE   50  48  93 NE7       29.99S
NEWCASTLE      CLOUDY    50  50 100 CALM      29.94F

$$
WYZ014>020-022>026-101>103-241200-
CENTRAL WYOMING

CITY           SKY/WX    TMP DP  RH WIND       PRES   REMARKS
BIG PINEY      FAIR      37  34  89 E6        29.98S WCI  32
PINEDALE       PTSUNNY   34  34 100 CALM      29.99S
DUBOIS         FAIR      36  34  93 NW6       30.00S WCI  31
LANDER         LGT RAIN  45  43  93 CALM      29.95F FOG
RIVERTON       LGT RAIN  45  43  93 NE10      29.97S
CASPER         LGT RAIN  44  42  93 CALM      29.91F
DOUGLAS        LGT RAIN  46  45  96 W6        29.91S

$$
WYZ021-027>030-104>119-241200-
SOUTHERN WYOMING

CITY           SKY/WX    TMP DP  RH WIND       PRES   REMARKS
EVANSTON       CLOUDY    38  36  92 SW6       30.00F WCI  33
KEMMERER       FAIR      34  34 100 NW9       29.99F WCI  26
FORT BRIDGER   CLOUDY    41  41 100 W9        30.01F
ROCK SPRINGS   RAIN      41  39  93 NW6       29.97F FOG
DIXON          RAIN      42  39  88 SW5       29.98F
RAWLINS        LGT RAIN  34  32  92 SW5       29.95F WCI  30
SARATOGA       LGT RAIN  34  34 100 NW3       29.97S
LARAMIE        CLOUDY    38  38 100 NE6       29.93F WCI  33
CHEYENNE       FAIR      39  38  96 W5        29.91S
TORRINGTON     CLOUDY    50  49  96 E8        29.87F
PINE BLUFFS    CLOUDY    45  45 100 CALM      29.91S

$$



USA.gov is the U.S. government's official web portal to all federal, state and local government web resources and services.